Tracking 29892 objects as of 21-Nov-2024
HD Live streaming from Space Station
objects crossing your sky now

ATLAS 5 CENTAUR DEB

Track ATLAS 5 CENTAUR DEB now!


NORAD ID: 46637
Int'l Code: 2014-055CM
Perigee: 6,827.4 km
Apogee: 34,616.9 km
Inclination: 20.5 °
Period: 739.7 minutes
Semi major axis: 27093 km
RCS: Unknown
Launch date: September 17, 2014
Source: United States (US)
Launch site: AIR FORCE EASTERN TEST RANGE (AFETR)

Note: This is SATELLITE DEBRIS
Your satellite tracking list
Your tracking list is empty




NASA's NSSDC Master Catalog

Two Line Element Set (TLE):
1 46637U 14055CM  24324.98206399 -.00000008  00000-0  00000-0 0  9991
2 46637  20.4715 150.1261 5128507 153.4783 246.0356  1.94676229 29296
Source of the keplerian elements: AFSPC